Regional Weather Roundup
Issued by NWS Jackson, KY

Home | Current Version | Previous Version | Graphics & Text | Print | Product List | Glossary On
Versions: 1 2 3 4 5 6 7 8 9 10 11 12 13 14 15 16 17 18 19 20 21 22 23 24 25 26 27
000
ASUS43 KJKL 231310
RWRJKL

EAST KENTUCKY HOURLY WEATHER ROUNDUP
NATIONAL WEATHER SERVICE JACKSON KY
800 AM EST THU NOV 23 2017

NOTE: "FAIR" INDICATES FEW OR NO CLOUDS BELOW 12,000 FEET WITH
NO SIGNIFICANT WEATHER AND/OR OBSTRUCTIONS TO VISIBILITY.

* THESE REPORTS ARE NOT UNDER NWS QUALITY CONTROL AND MAY NOT
  REPORT WEATHER SUCH AS PRECIPITATION AND FOG.

KYZ079-080-083-085-087-088-110-112-115-119-120-231400
...EASTERN KENTUCKY...

CITY           SKY/WX    TMP DP  RH WIND       PRES   REMARKS
JACKSON        CLOUDY    26  21  81 VRB3      30.14F
LONDON         CLOUDY    25  21  85 N5        30.16S WCI  19
SOMERSET*      CLOUDY    23  23 100 S3        30.18F
MONTICELLO*    CLEAR     20  18  92 N8        30.18F WCI  10
WILLIAMSBURG*  CLOUDY    23  23 100 CALM      30.16S
MIDDLESBORO*   CLEAR     24  23  96 CALM      30.17S
HARLAN APT*    CLOUDY    27  25  93 CALM      30.14F
PIKE CO APT*     N/A     25  25 100 CALM      30.14S
BIG SANDY APT* CLOUDY    24  23  94 CALM      30.16S
MOREHEAD APT*  CLOUDY    23  19  86 CALM      30.18S
$$

KYZ035-036-041-042-044-050-067-078-099-231400
...CENTRAL KENTUCKY...

CITY           SKY/WX    TMP DP  RH WIND       PRES   REMARKS
MT STERLING*   PTCLDY    21  19  93 CALM      30.18R
FLEMING/MASON* PTCLDY    21  20  96 E3        30.18S
DANVILLE*      CLOUDY    21  19  93 CALM      30.18R
LEXINGTON      CLOUDY    22  16  78 SE6       30.15F WCI  14
FRANKFORT      CLOUDY    22  18  85 CALM      30.15F
LOUISVILLE     CLOUDY    29  25  85 CALM      30.17S
LEBANON*         N/A     23  19  86 CALM      30.16F
GLASGOW*       PTCLDY    25  25  99 CALM      30.17S
BOWLING GREEN  CLOUDY    25  23  92 CALM      30.19S
$$

KYZ091>093-OHZ055-061-077-WVZ005-015-034-035-042-231400
...SOUTHERN OHIO/WEST VIRGINIA...

CITY           SKY/WX    TMP DP  RH WIND       PRES   REMARKS
COVINGTON      MOCLDY    27  25  92 S3        30.15S
COLUMBUS       CLOUDY    25  22  88 S3        30.16F
DAYTON         CLOUDY    28  24  85 S7        30.14F WCI  21
WILMINGTON     PTCLDY    26  24  92 SE5       30.14F WCI  20
HUNTINGTON     CLOUDY    23  20  88 CALM      30.17S FOG
CHARLESTON     CLOUDY    23  21  92 CALM      30.17S
PINEVILLE*       N/A     21  19  91 MISG      30.19S
BECKLEY        CLOUDY    22  19  89 SE5       30.09F WCI  16
BLUEFIELD      CLOUDY    24  21  88 CALM      30.09S
LOGAN CO APT*    N/A     27  25  93 CALM      30.13S
$$

VAZ002-007-008-TNZ017-027-036-066-071-231400
...SOUTHWEST VIRGINIA/EAST TENNESSEE...

CITY           SKY/WX    TMP DP  RH WIND       PRES   REMARKS
WISE*          CLOUDY    27  23  86 CALM      30.11R
JONESVILLE*      N/A     23  23 100 CALM      30.17R
ABINGDON*      CLEAR     28  25  88 E6        30.11R WCI  21
BRISTOL        CLEAR     25  23  92 CALM      30.14R
MORRISTOWN*    SUNNY     30  25  80 CALM      30.13R
SEVIERVILLE*   SUNNY     27  25  93 CALM      30.16R
KNOXVILLE      PTCLDY    32  29  88 NE3       30.14R
LAFOLLETTE*    SUNNY     25  25 100 CALM      30.18S
OAK RIDGE      CLEAR     31  28  89 CALM      30.16R
CROSSVILLE     CLEAR     25  22  88 E3        30.12S
NASHVILLE      PTCLDY    26  23  88 S5        30.17F WCI  20
$$

...KEY TO REMARKS...
VSB - VISIBILITY IN MILES
WCI - WIND CHILL INDEX
HX  - HEAT INDEX

$$




USA.gov is the U.S. government's official web portal to all federal, state and local government web resources and services.